DW1053 Weather Reports


time (UTC)temp
C
wind
direction
speed
KPH
gust
KPH
rain 1hr
cm
rain 24hr
cm
rain mn
cm
humidity
%
barometer
mb
20260906230205 21 103 0.0 0.0 0.00 0.00 0.00 58 1017.7
20260906220228 22 96 0.0 1.6 0.00 0.00 0.00 55 1017.8
20260906210207 22 121 0.0 0.0 0.00 0.00 0.00 54 1018.0
20260906200208 23 134 0.0 0.0 0.00 0.00 0.00 51 1018.2
20260906190231 25 122 0.0 3.2 0.00 0.00 0.00 44 1018.2
20260906180208 25 114 0.0 1.6 0.00 0.00 0.00 45 1018.1
20260906170207 27 113 0.0 1.6 0.00 0.00 0.00 39 1018.2
20260906150208 27 132 0.0 1.6 0.00 0.00 0.00 34 1018.5
20260906140206 27 130 0.0 3.2 0.00 0.00 0.00 34 1018.8
20260906130208 28 117 0.0 1.6 0.00 0.00 0.00 34 1019.4
20260906120218 28 97 0.0 6.4 0.00 0.00 0.00 34 1020.0
20260906110209 26 122 0.0 8.0 0.00 0.00 0.00 35 1020.4
20260906100231 24 326 0.0 8.0 0.00 0.00 0.00 50 1020.9
20260906090205 20 346 0.0 1.6 0.00 0.00 0.00 66 1021.5
20260906080208 17 91 0.0 1.6 0.00 0.00 0.00 80 1021.8
20260906070207 15 335 0.0 0.0 0.00 0.00 0.00 89 1021.6
20260906060206 14 100 0.0 0.0 0.00 0.00 0.00 90 1021.6
20260906050207 14 100 0.0 0.0 0.00 0.00 0.00 90 1021.2
20260906040206 14 100 0.0 0.0 0.00 0.00 0.00 90 1020.9
20260906020206 15 100 0.0 0.0 0.00 0.00 0.00 89 1021.2
20260906000208 17 100 0.0 0.0 0.00 0.00 0.00 87 1021.1